Regional Weather Roundup
Issued by NWS Sterling, VA

Home | Current Version | Previous Version | Text Only | Print | Product List | Glossary Off
Versions: 1 2 3 4 5 6 7 8 9 10 11 12 13 14 15 16 17 18 19 20 21 22 23 24 25 26 27 28 29 30 31 32 33 34 35 36 37 38 39 40 41 42 43 44 45 46 47 48 49 50

000
ASUS41 KLWX 050510
RWRLWX

REGIONAL WEATHER ROUNDUP
NATIONAL WEATHER SERVICE BALTIMORE MD/WASHINGTON DC
100 AM EDT SUN JUL 05 2015

Note: "FAIR" indicates few or no clouds below 12,000 feet
with no significant weather and/or obstructions to visibility.
 TC=TEMPERATURE CELSIUS

 * =Non NWS site. Station does not report precipitation (e.g. rain,
    snow, etc.), thunder, or fog.

DCZ001-MDZ009-015-VAZ040>042-051-053>054-050600-
WASHINGTON METRO

CITY           SKY/WX    TMP DP  RH WIND       PRES   REMARKS
WASHINGTON NAT CLOUDY    75  70  84 N3        30.05S HAZE
DULLES         MOCLDY    69  67  93 CALM      30.05S FOG
ANDREWS AFB    MOCLDY    68  68 100 N5        30.04S FOG
FT BELVOIR     FOG       70  68  94 CALM      30.05R VSB 3/4
QUANTICO       PTCLDY    71  67  87 NW6       30.05S
COLLEGE PARK*    N/A     68  68 100 CALM      30.04S
LEESBURG*      MOCLDY    68  68 100 N6        30.07S FOG
MANASSAS*        N/A    N/A N/A N/A MISG        N/A
GAITHERSBURG*  MOCLDY    66  63  88 CALM      30.10R

$$

MDZ006>007-011-014-050600-
BALTIMORE METRO

CITY           SKY/WX    TMP DP  RH WIND       PRES   REMARKS
BWI AIRPORT    MOCLDY    67  65  93 CALM      30.04R FOG
MD SCIENCE CTR   N/A     71  66  84 MISG      30.05R
MARTIN STATE     N/A     68  68 100 CALM      30.05S FOG
ANNAPOLIS      PTCLDY    71  66  84 NW3       30.03R
FORT MEADE*      N/A     64  63  94 CALM      30.07R

$$

MDZ012-015-019>023-050600-
MARYLAND EASTERN SHORE

CITY           SKY/WX    TMP DP  RH WIND       PRES   REMARKS
OCEAN CITY     MOCLDY    69  67  93 NW6       30.03R FOG
SALISBURY      CLOUDY    70  70 100 NW5       30.03R FOG
BAY BRIDGE AP*   N/A     70  68  94 CALM      30.04R
EASTON*        MOCLDY    70  70 100 CALM      30.07R FOG

$$

MDZ017>025-050600-
SOUTHERN MARYLAND

CITY           SKY/WX    TMP DP  RH WIND       PRES   REMARKS
PATUXENT RIVER PTCLDY    71  69  93 W6G26     30.02R
ST INIGOES     NOT AVBL
LEONARDTOWN*   CLOUDY    70  68  94 CALM      30.05R

$$

MDZ003>005-050600-
NORTH CENTRAL MARYLAND

CITY           SKY/WX    TMP DP  RH WIND       PRES   REMARKS
FREDERICK*     FOG       64  64 100 CALM      30.09R VSB 3/4
HAGERSTOWN APT MOCLDY    68  63  84 E3        30.07R
WESTMINSTER*   MOCLDY    66  64  94 CALM      30.07R FOG

$$

MDZ501>502-050600-
WESTERN MARYLAND

CITY           SKY/WX    TMP DP  RH WIND       PRES   REMARKS
OAKLAND*       MOCLDY    63 N/A N/A CALM      30.16R
CUMBERLAND*      N/A     68  68 100 CALM      30.11R

$$

VAZ025>031-050600-
SHENANDOAH VALLEY

CITY           SKY/WX    TMP DP  RH WIND       PRES   REMARKS
WINCHESTER*    MOCLDY    70  68  94 CALM      30.07R FOG
FRONT ROYAL*   CLOUDY    66  66 100 CALM      30.06R VSB 1/4
LURAY*         MOCLDY    68  68 100 CALM      30.07S FOG
NEW MARKET*    FAIR      65  65  99 CALM      30.05F
STAUNTON*      PTCLDY    70  66  88 CALM      30.09F
WAYNESBORO*    FAIR      67  66  96 CALM      30.09S

$$

WVZ021-048>050-054>055-050600-
EASTERN WEST VIRGINIA PANHANDLE

CITY           SKY/WX    TMP DP  RH WIND       PRES   REMARKS
MARTINSBURG    MOCLDY    68  65  90 CALM      30.07S FOG
PETERSBURG*    PTCLDY    65  62  90 CALM      30.09S FOG

$$

VAZ036>039-050-050600-
CENTRAL FOOTHILLS

CITY           SKY/WX    TMP DP  RH WIND       PRES   REMARKS
CHARLOTTESVILL PTCLDY    69  67  93 CALM      30.06R
CULPEPER*      FOG       65  65 100 CALM      30.06S VSB 1/2
ORANGE*        CLEAR     68  66  94 CALM      30.07S FOG
GORDONSVILLE*  FOG       66  66 100 CALM      30.05S VSB 1
WARRENTON*     FOG       67  67 100 CALM      30.05R VSB<1/4

$$

VAZ055>057-050600-
NORTH AND CENTRAL PIEDMONT

CITY           SKY/WX    TMP DP  RH WIND       PRES   REMARKS
FREDERICKSBRG* CLEAR     70  70 100 CALM      30.04R FOG
STAFFORD*        N/A     66  65  97 CALM      30.08S FOG

$$

NCZ024-NYZ072-PAZ021-071-VAZ022-071-050600-
OTHER REGIONAL OBSERVATIONS

CITY           SKY/WX    TMP DP  RH WIND       PRES   REMARKS
NEW YORK CITY  PTCLDY    69  58  67 CALM      30.06R
PHILADELPHIA   CLOUDY    71  57  61 CALM      30.05R
PITTSBURGH     MOCLDY    64  55  72 CALM      30.09R
ROANOKE        PTCLDY    70  67  90 CALM      30.09S
RICHMOND       PTCLDY    71  69  93 CALM      30.03S FOG
RALEIGH        MOCLDY    74  69  85 SW5       30.06R

$$

ANZ530>537-050600-
MARINE OBSERVATIONS

STATION/POSITION TIME  TEMP    WIND        PRES
                       AIR SEA DIR/SP/G
                 (UTC) (F)     (DEG/KT/KT) (MB)
THOMAS PT LIGHT  NOT AVBL
BALT KEY BRIDGE  0400   71      10/  4/  5 1016.8R
COVE POINT       0400   72     170/  3/  4 1017.1R
LEWISETTA        0400   71 79  300/  5/  6 1016.4R
SOLOMONS ISLAND  0400      79                N/A

$$




USA.gov is the U.S. government's official web portal to all federal, state and local government web resources and services.